Location: Fazenda Monte Alegre
(4.8500°S, 38.0333°W)
Time: 15:35:51
(UTC+00:00)

X-37B - Pass Details

Date: 24 September 2020
Orbit: 382 x 392 km, 45.0° (Epoch: 15 October)

Event Time Altitude Azimuth Distance (km) Brightness Sun altitude
Rises 21:49:45 0° 231° (SW) 2,267 5.3 -21.3°
Reaches altitude 10° 21:51:52 10° 237° (WSW) 1,408 4.2 -21.8°
Enters shadow 21:54:36 44° 290° (WNW) 541 1.6 -22.5°
